Regional Weather Roundup
Issued by NWS

Home | Current Version | Previous Version | Graphics & Text | Print | Product List | Glossary On
Versions: 1 2 3 4 5 6 7 8 9 10 11 12 13 14 15 16 17 18 19 20 21 22 23 24 25 26 27 28 29 30 31 32 33 34 35 36 37 38 39 40 41 42
000
ASUS43 KDMX 251207
RWRIA

WEATHER ROUNDUP FOR IOWA
NATIONAL WEATHER SERVICE DES MOINES IA
600 AM CST THU DEC 25 2014

NOTE: "FAIR" INDICATES FEW OR NO CLOUDS BELOW 12,000 FEET WITH NO
SIGNIFICANT WEATHER AND/OR OBSTRUCTIONS TO VISIBILITY.

* - THESE STATIONS ARE NOT NWS STATIONS...THUS NOT UNDER NWS
QUALITY CONTROL.  THEY ALSO DO NOT REPORT WEATHER SUCH
AS PRECIPITATION OR FOG.

IAZ001>003-012>014-020>022-031>034-043>046-251300-
   NORTHWEST IOWA

CITY           SKY/WX    TMP DP  RH WIND       PRES   REMARKS
CARROLL *      CLEAR     32  28  86 S15       29.64S WCI  22
CHEROKEE *     CLOUDY    30  28  93 S8        29.60S WCI  22
DENISON *      CLEAR     30  28  93 S12       29.61S WCI  21
LE MARS *      CLEAR     30  28  93 S5        29.59R WCI  25
ORANGE CITY *  CLEAR     30  27  86 SE3       29.57S
SHELDON *      CLEAR     28  28 100 SE12      29.57S WCI  18
SIOUX CITY     CLOUDY    31  27  85 SE12      29.58S WCI  22
6HR MIN TEMP:  28; 6HR MAX TEMP:  31;

SPENCER        CLOUDY    29  25  85 S8        29.61R WCI  21
6HR MIN TEMP:  28; 6HR MAX TEMP:  29;

STORM LAKE *   CLEAR     28  27  93 S12       29.60S WCI  18
$$

IAZ055>058-069>071-079>083-090>094-251300-
   SOUTHWEST IOWA

CITY           SKY/WX    TMP DP  RH WIND       PRES   REMARKS
ATLANTIC *     CLEAR     32  28  86 S13       29.66F WCI  22
AUDUBON *      CLEAR     30  25  80 S12G18    29.65F WCI  21
CLARINDA *     CLEAR     32  28  86 S10       29.72S WCI  24
COUNCIL BLFS * CLEAR     34  28  80 S12       29.63S WCI  25
CRESTON *      CLEAR     30  28  93 S16       29.70F WCI  19
HARLAN  *      CLEAR     32  32 100 S13       29.67F WCI  22
LAMONI         PTCLDY    28  27  96 S12       29.75R WCI  18
6HR MIN TEMP:  28; 6HR MAX TEMP:  31;

RED OAK *      PTCLDY    32  28  86 S12       29.68S WCI  23
SHENANDOAH *   CLEAR     32  28  86 S8        29.69S WCI  25
$$

IAZ047>049-059>061-072>074-084-251300-
   CENTRAL IOWA

CITY           SKY/WX    TMP DP  RH WIND       PRES   REMARKS
AMES           PTCLDY    30  27  88 S9        29.70S WCI  22
6HR MIN TEMP:  29; 6HR MAX TEMP:  31;

ANKENY *       CLEAR     30  28  93 S9        29.72R WCI  22
CHARITON *     PTCLDY    30  28  93 S13       29.75S WCI  20
DES MOINES     MOCLDY    32  28  85 S10       29.73S WCI  24
6HR MIN TEMP:  31; 6HR MAX TEMP:  32;

GRINNELL*      CLEAR     30  28  93 S13       29.75S WCI  20
KNOXVILLE *    CLEAR     32  28  86 S14       29.74S WCI  22
MARSHALLTOWN   CLEAR     30  27  88 S12       29.71S WCI  20
6HR MIN TEMP:  29; 6HR MAX TEMP:  31;

PELLA *        CLEAR     31  29  92 S9        29.77S WCI  23
PERRY *          N/A     32  30  93 S10       29.69R WCI  24
$$

IAZ004>006-015-016-023>025-035-036-251300-
   NORTH CENTRAL IOWA

CITY           SKY/WX    TMP DP  RH WIND       PRES   REMARKS
ALGONA *       CLEAR     30  30 100 S13       29.65R WCI  20
CLARION *      PTCLDY    28  30 100 S15       29.66S WCI  17
ESTHERVILLE    CLOUDY    28  27  96 S13       29.62R WCI  17
6HR MIN TEMP:  26; 6HR MAX TEMP:  28;

FORT DODGE *   PTCLDY    30  27  86 S12G17    29.66R WCI  21
MASON CITY     CLOUDY    29  27  92 S10       29.69R WCI  20
6HR MIN TEMP:  27; 6HR MAX TEMP:  29;

FOREST CITY *  CLOUDY    30  28  93 S8        29.67R WCI  23
IOWA FALLS *     N/A     30  28  93 S16       29.69S WCI  19
$$

IAZ007>011-017>019-026>030-037>042-050>054-066-251300-
   NORTHEAST IOWA

CITY           SKY/WX    TMP DP  RH WIND       PRES   REMARKS
CEDAR RAPIDS   CLOUDY    31  29  92 S12       29.78R WCI  22
6HR MIN TEMP:  31; 6HR MAX TEMP:  32; 6HR PCP: TRACE;

CHARLES CITY * CLOUDY    30  30 100 S13       29.70F WCI  20
CLINTON *      CLOUDY    32  27  80 SW13      29.85R WCI  22
DECORAH *      CLOUDY    28  28 100 VRB6G13   29.72R WCI  22
DUBUQUE        CLOUDY    30  27  88 SW16      29.77R WCI  19
6HR MIN TEMP:  30; 6HR MAX TEMP:  32; 6HR PCP: TRACE;

MONTICELLO *   CLOUDY    32  30  93 S9        29.79R WCI  24
OELWEIN *      CLOUDY    30  28  93 S12       29.74S WCI  21
WATERLOO       MIX PCPN  30  28  92 S12       29.73F WCI  20
6HR MIN TEMP:  30; 6HR MAX TEMP:  30; 6HR PCP: TRACE;

$$

IAZ064-065-067-068-078-251300-
   EAST CENTRAL IOWA

CITY           SKY/WX    TMP DP  RH WIND       PRES   REMARKS
DAVENPORT      CLOUDY    33  26  75 SW10      29.83R WCI  25
6HR MIN TEMP:  32; 6HR MAX TEMP:  34; 6HR PCP: TRACE;

IOWA CITY      CLOUDY    33  29  85 S8        29.82S WCI  26
6HR MIN TEMP:  32; 6HR MAX TEMP:  33; 6HR PCP: TRACE;

MT. PLEASANT * CLEAR     32  29  88 S9        29.85R WCI  24
MUSCATINE *    CLOUDY    34  28  80 S10       29.85R WCI  26
QUAD CITIES    CLOUDY    34  27  75 SW9       29.84R WCI  27
6HR MIN TEMP:  33; 6HR MAX TEMP:  35; 6HR PCP: TRACE;

$$

IAZ062-063-075>077-085>089-095>099-251300-
   SOUTHEAST IOWA

CITY           SKY/WX    TMP DP  RH WIND       PRES   REMARKS
BURLINGTON     CLOUDY    34  30  85 S10       29.86R WCI  26
6HR MIN TEMP:  34; 6HR MAX TEMP:  35;

FAIRFIELD *    CLEAR     32  28  86 S12       29.82R WCI  23
FORT MADISON * PTCLDY    36  30  80 S8        29.87R WCI  29
KEOKUK *       CLEAR     34  30  86 S9        29.86R WCI  26
OSKALOOSA *      N/A     30  28  94 S12       29.79S WCI  20
CENTERVILLE *  CLEAR     30  30 100 S9        29.80S WCI  22
OTTUMWA        CLEAR     31  28  89 S14       29.79S WCI  21
6HR MIN TEMP:  31; 6HR MAX TEMP:  33;

WASHINGTON *   MOCLDY    32  32 100 S10       29.82R WCI  24
$$

ABBREVIATIONS USED IN REMARKS
   TC - TEMPERATURES IN CELSIUS
  WCI - WIND CHILL INDEX
   HX - HEAT INDEX
  VSB - VISIBILITY
$$



USA.gov is the U.S. government's official web portal to all federal, state and local government web resources and services.